Record,Date/Time,10,Tamb(K),Rh(%),Pres(mb),Rain,Az(deg),El(deg),TkBB(K), 22.235, 23.035, 23.835, 26.235, 30.000,
     1,10/12/05 00:01:14,11,290.49, 80.25,1019.0,Y,  0.00, 90.00,296.57, 30.85, 30.99, 27.09, 19.73, 14.54,
     2,10/12/05 00:02:14,11,290.40, 80.47,1018.7,Y,  0.00, 90.00,296.55, 30.49, 30.02, 27.29, 20.01, 14.64,
     3,10/12/05 00:03:14,11,290.40, 80.69,1019.0,Y,  0.00, 90.00,296.55, 30.48, 30.37, 26.66, 19.42, 14.12,
     4,10/12/05 00:04:14,11,290.34, 80.54,1019.0,Y,  0.00, 90.00,296.53, 30.60, 30.58, 26.78, 19.73, 14.09,
     5,10/12/05 00:05:14,11,290.21, 80.23,1018.9,Y,  0.00, 90.00,296.52, 30.16, 30.48, 26.38, 19.79, 14.85,
     6,10/12/05 00:06:14,11,290.30, 80.37,1018.9,Y,  0.00, 90.00,296.51, 30.64, 30.72, 26.55, 19.82, 14.95,
     7,10/12/05 00:07:14,11,290.25, 80.19,1019.0,Y,  0.00, 90.00,296.49, 30.86, 30.67, 27.19, 20.39, 16.06,
     8,10/12/05 00:08:14,11,290.23, 79.87,1018.8,Y,  0.00, 90.00,296.48, 31.49, 30.90, 27.27, 20.69, 16.55,
     9,10/12/05 00:09:14,11,290.33, 80.03,1018.9,Y,  0.00, 90.00,296.47, 30.13, 30.17, 26.26, 19.65, 15.26,
    10,10/12/05 00:10:14,11,290.25, 79.89,1018.9,Y,  0.00, 90.00,296.48, 30.25, 30.59, 26.19, 19.60, 15.34,
    11,10/12/05 00:11:14,11,290.25, 80.00,1018.9,Y,  0.00, 90.00,296.45, 30.48, 30.19, 27.16, 19.96, 14.51,
    12,10/12/05 00:12:14,11,290.35, 80.11,1018.9,Y,  0.00, 90.00,296.45, 30.52, 30.50, 26.52, 20.20, 14.02,
    13,10/12/05 00:13:14,11,290.34, 79.97,1019.0,Y,  0.00, 90.00,296.43, 30.19, 29.93, 26.62, 19.57, 14.29,
    14,10/12/05 00:14:14,11,290.24, 80.08,1019.0,Y,  0.00, 90.00,296.42, 30.48, 30.17, 26.67, 19.84, 15.61,
    15,10/12/05 00:15:14,11,290.20, 79.22,1019.0,Y,  0.00, 90.00,296.42, 30.57, 30.55, 27.14, 20.15, 14.75,
    16,10/12/05 00:16:14,11,290.39, 79.72,1018.9,Y,  0.00, 90.00,296.41, 30.64, 30.44, 26.46, 20.10, 15.25,
    17,10/12/05 00:17:14,11,290.25, 79.20,1019.1,Y,  0.00, 90.00,296.40, 30.84, 30.69, 26.58, 20.09, 14.46,
    18,10/12/05 00:18:14,11,290.37, 79.42,1019.0,Y,  0.00, 90.00,296.39, 31.15, 30.97, 27.07, 19.58, 14.16,
    19,10/12/05 00:19:14,11,290.39, 79.27,1019.0,Y,  0.00, 90.00,296.40, 30.94, 31.10, 27.14, 20.65, 14.69,
    20,10/12/05 00:20:14,11,290.53, 79.79,1019.1,Y,  0.00, 90.00,296.39, 30.54, 30.50, 27.20, 20.30, 15.12,
    21,10/12/05 00:21:15,11,290.32, 78.79,1019.0,Y,  0.00, 90.00,296.37, 31.19, 31.33, 27.67, 20.61, 16.12,
    22,10/12/05 00:22:14,11,290.35, 79.04,1018.9,Y,  0.00, 90.00,296.37, 31.66, 30.76, 27.27, 20.77, 16.57,
    23,10/12/05 00:23:14,11,290.34, 78.97,1018.9,Y,  0.00, 90.00,296.37, 31.23, 31.58, 27.52, 20.90, 16.64,
    24,10/12/05 00:24:14,11,290.42, 79.25,1019.1,Y,  0.00, 90.00,296.36, 31.16, 31.08, 28.31, 21.48, 16.41,
    25,10/12/05 00:25:14,11,290.35, 78.66,1019.0,Y,  0.00, 90.00,296.36, 32.14, 31.92, 28.45, 21.85, 16.98,
    26,10/12/05 00:26:14,11,290.41, 78.97,1019.1,Y,  0.00, 90.00,296.34, 31.90, 31.77, 27.91, 21.63, 17.01,
    27,10/12/05 00:27:14,11,290.55, 79.53,1019.2,Y,  0.00, 90.00,296.36, 31.71, 31.10, 27.65, 21.02, 17.01,
    28,10/12/05 00:28:14,11,290.38, 79.25,1019.1,Y,  0.00, 90.00,296.34, 31.58, 31.63, 28.07, 21.30, 16.22,
    29,10/12/05 00:29:14,11,290.48, 79.47,1019.1,Y,  0.00, 90.00,296.33, 31.48, 31.26, 28.09, 21.13, 15.76,
    30,10/12/05 00:30:14,11,290.36, 78.97,1019.0,Y,  0.00, 90.00,296.33, 31.46, 31.40, 27.67, 21.49, 17.82,
    31,10/12/05 00:31:14,11,290.35, 78.91,1019.0,Y,  0.00, 90.00,296.32, 32.00, 32.25, 28.51, 22.09, 17.07,
    32,10/12/05 00:32:14,11,290.40, 79.18,1019.2,Y,  0.00, 90.00,296.32, 31.76, 31.57, 28.23, 21.58, 17.52,
    33,10/12/05 00:33:14,11,290.49, 79.50,1019.1,Y,  0.00, 90.00,296.32, 32.46, 32.32, 28.96, 23.24, 18.51,
    34,10/12/05 00:34:14,11,290.53, 79.93,1019.1,Y,  0.00, 90.00,296.33, 31.66, 31.66, 27.94, 22.07, 18.48,
    35,10/12/05 00:35:14,11,290.38, 79.40,1018.9,Y,  0.00, 90.00,296.32, 33.23, 33.39, 30.10, 23.99, 19.45,
    36,10/12/05 00:36:14,11,290.52, 80.21,1019.0,Y,  0.00, 90.00,296.32, 33.17, 32.69, 29.78, 23.80, 19.73,
    37,10/12/05 00:37:14,11,290.39, 79.72,1019.4,Y,  0.00, 90.00,296.33, 33.33, 33.27, 29.63, 24.08, 19.24,
    38,10/12/05 00:38:15,11,290.33, 79.78,1019.3,Y,  0.00, 90.00,296.32, 34.18, 33.82, 30.07, 24.34, 20.53,
    39,10/12/05 00:39:14,11,290.51, 80.18,1019.1,Y,  0.00, 90.00,296.32, 34.24, 34.47, 30.95, 24.88, 22.14,
    40,10/12/05 00:40:14,11,290.45, 80.28,1018.9,Y,  0.00, 90.00,296.32, 33.26, 32.91, 29.33, 23.07, 19.73,
    41,10/12/05 00:41:14,11,290.41, 80.12,1019.1,Y,  0.00, 90.00,296.33, 34.36, 34.24, 31.14, 24.66, 20.51,
    42,10/12/05 00:42:14,11,290.50, 80.87,1019.1,Y,  0.00, 90.00,296.33, 37.52, 37.16, 34.21, 28.77, 25.63,
    43,10/12/05 00:43:14,11,290.29, 80.74,1019.1,Y,  0.00, 90.00,296.34, 36.50, 36.67, 32.89, 27.05, 24.17,
    44,10/12/05 00:44:14,11,290.35, 80.72,1019.1,Y,  0.00, 90.00,296.33, 38.27, 38.46, 35.12, 29.94, 27.99,
    45,10/12/05 00:45:14,11,290.39, 80.94,1019.1,Y,  0.00, 90.00,296.33, 43.14, 44.59, 41.96, 39.46, 39.85,
    46,10/12/05 00:46:14,11,290.28, 81.19,1019.1,Y,  0.00, 90.00,296.33, 38.75, 39.02, 35.43, 30.37, 28.42,
    47,10/12/05 00:47:14,11,290.21, 81.48,1019.2,Y,  0.00, 90.00,296.33, 34.19, 33.82, 30.58, 23.76, 20.26,
    48,10/12/05 00:48:14,11,290.36, 82.23,1019.2,Y,  0.00, 90.00,296.34, 33.89, 33.81, 30.38, 23.92, 19.31,
    49,10/12/05 00:49:14,11,290.25, 82.03,1019.2,Y,  0.00, 90.00,296.33, 32.38, 32.58, 28.77, 22.13, 16.96,
    50,10/12/05 00:50:14,11,290.26, 82.11,1019.1,Y,  0.00, 90.00,296.33, 32.92, 33.24, 29.99, 23.80, 19.60,
    51,10/12/05 00:51:14,11,290.15, 82.47,1019.2,Y,  0.00, 90.00,296.33, 33.70, 34.04, 30.68, 23.75, 20.07,
    52,10/12/05 00:52:14,11,290.36, 82.43,1019.3,Y,  0.00, 90.00,296.32, 35.04, 35.12, 31.73, 25.74, 21.28,
    53,10/12/05 00:53:14,11,290.47, 82.15,1019.2,Y,  0.00, 90.00,296.33, 34.53, 35.75, 31.74, 25.99, 22.80,
    54,10/12/05 00:54:14,11,290.36, 81.26,1019.3,Y,  0.00, 90.00,296.32, 34.56, 34.63, 31.51, 25.22, 21.28,
    55,10/12/05 00:55:14,11,290.24, 80.23,1019.4,Y,  0.00, 90.00,296.32, 36.31, 36.42, 33.02, 26.61, 23.06,
    56,10/12/05 00:56:14,11,290.26, 79.79,1019.3,Y,  0.00, 90.00,296.31, 35.80, 35.70, 32.51, 26.26, 22.32,
    57,10/12/05 00:57:14,11,290.38, 79.99,1019.2,Y,  0.00, 90.00,296.31, 35.21, 35.66, 32.18, 25.86, 22.88,
    58,10/12/05 00:58:14,11,290.22, 79.95,1019.4,Y,  0.00, 90.00,296.31, 36.91, 36.75, 33.39, 27.59, 24.16,
    59,10/12/05 00:59:14,11,290.33, 80.70,1019.3,Y,  0.00, 90.00,296.32, 36.14, 36.28, 32.72, 26.83, 23.08,
    60,10/12/05 01:00:15,11,290.45, 81.97,1019.3,Y,  0.00, 90.00,296.29, 35.58, 34.97, 31.70, 24.89, 21.10,
    61,10/12/05 01:01:14,11,290.18, 81.80,1019.2,Y,  0.00, 90.00,296.30, 35.01, 35.05, 31.78, 25.99, 22.02,
    62,10/12/05 01:02:14,11,290.18, 81.86,1019.3,Y,  0.00, 90.00,296.30, 35.37, 35.77, 31.95, 25.97, 22.18,
    63,10/12/05 01:03:14,11,289.98, 82.34,1019.4,Y,  0.00, 90.00,296.29, 39.01, 39.56, 36.71, 30.66, 28.38,
    64,10/12/05 01:04:14,11,290.16, 83.29,1019.5,Y,  0.00, 90.00,296.28, 38.40, 39.24, 35.52, 30.40, 27.82,
    65,10/12/05 01:05:14,11,289.91, 82.37,1019.6,Y,  0.00, 90.00,296.27, 37.22, 36.94, 33.70, 27.86, 25.10,
    66,10/12/05 01:06:14,11,290.02, 82.06,1019.3,Y,  0.00, 90.00,296.24, 37.27, 37.71, 34.36, 29.53, 26.37,
    67,10/12/05 01:07:15,11,290.07, 81.54,1019.4,Y,  0.00, 90.00,296.24, 36.43, 36.82, 33.40, 27.24, 23.93,
    68,10/12/05 01:08:14,11,289.99, 80.95,1019.5,Y,  0.00, 90.00,296.25, 36.08, 36.06, 32.54, 27.21, 23.14,
    69,10/12/05 01:09:14,11,289.98, 81.08,1019.5,Y,  0.00, 90.00,296.22, 32.82, 32.81, 29.19, 22.17, 17.70,
    70,10/12/05 01:10:14,11,290.00, 81.53,1019.5,Y,  0.00, 90.00,296.21, 32.24, 31.90, 28.03, 20.99, 15.95,
    71,10/12/05 01:11:14,11,290.12, 81.79,1019.5,Y,  0.00, 90.00,296.20, 32.12, 31.28, 27.88, 20.40, 15.57,
    72,10/12/05 01:12:14,11,290.14, 82.08,1019.4,Y,  0.00, 90.00,296.19, 31.94, 32.43, 28.22, 21.26, 15.70,
    73,10/12/05 01:13:14,11,289.93, 81.58,1019.6,Y,  0.00, 90.00,296.17, 32.21, 31.97, 28.06, 20.95, 15.59,
    74,10/12/05 01:14:14,11,290.08, 82.08,1019.6,Y,  0.00, 90.00,296.17, 34.62, 34.21, 30.66, 24.37, 20.54,
    75,10/12/05 01:15:14,11,290.22, 82.54,1019.6,Y,  0.00, 90.00,296.15, 36.86, 35.90, 32.72, 26.47, 23.05,
    76,10/12/05 01:16:14,11,290.19, 82.92,1019.6,Y,  0.00, 90.00,296.14, 36.41, 36.07, 32.79, 26.73, 24.00,
    77,10/12/05 01:17:15,11,290.00, 83.43,1019.7,Y,  0.00, 90.00,296.14, 38.49, 38.90, 35.54, 29.94, 26.85,
    78,10/12/05 01:18:14,11,289.94, 84.00,1019.6,Y,  0.00, 90.00,296.10, 41.90, 42.14, 39.48, 34.90, 33.65,
    79,10/12/05 01:19:14,11,289.82, 84.49,1019.8,Y,  0.00, 90.00,296.09, 39.69, 40.20, 36.95, 31.81, 29.16,
    80,10/12/05 01:20:14,11,289.84, 85.58,1019.6,Y,  0.00, 90.00,296.09, 39.09, 39.09, 36.51, 31.39, 29.27,
    81,10/12/05 01:21:14,11,289.69, 86.48,1019.9,Y,  0.00, 90.00,296.09, 40.95, 41.34, 38.15, 32.94, 32.07,
    82,10/12/05 01:22:14,11,289.42, 86.48,1019.9,Y,  0.00, 90.00,296.07, 42.42, 42.12, 39.32, 35.09, 34.54,
    83,10/12/05 01:23:14,11,289.37, 87.04,1019.9,Y,  0.00, 90.00,296.05, 43.24, 43.56, 40.85, 36.01, 35.82,
    84,10/12/05 01:24:14,11,289.19, 86.97,1020.0,Y,  0.00, 90.00,296.04, 44.62, 44.80, 42.27, 38.02, 38.57,
    85,10/12/05 01:25:14,11,289.29, 87.78,1019.8,Y,  0.00, 90.00,296.01, 42.71, 43.07, 39.84, 35.17, 35.13,
    86,10/12/05 01:26:14,11,289.14, 87.74,1020.1,Y,  0.00, 90.00,295.99, 41.57, 41.96, 38.86, 33.41, 31.89,
    87,10/12/05 01:27:14,11,289.13, 88.09,1020.0,Y,  0.00, 90.00,295.97, 39.07, 39.34, 36.34, 30.59, 27.48,
    88,10/12/05 01:28:14,11,289.19, 88.53,1019.9,Y,  0.00, 90.00,295.94, 35.68, 35.56, 31.78, 25.78, 21.11,
    89,10/12/05 01:29:14,11,289.17, 88.80,1019.8,Y,  0.00, 90.00,295.91, 34.57, 35.23, 31.49, 25.24, 20.50,
    90,10/12/05 01:30:14,11,289.16, 89.01,1019.8,Y,  0.00, 90.00,295.89, 34.82, 34.37, 31.05, 24.05, 19.39,
    91,10/12/05 01:31:14,11,289.45, 89.41,1020.0,Y,  0.00, 90.00,295.87, 32.68, 32.71, 28.64, 21.92, 16.91,
    92,10/12/05 01:32:14,11,289.45, 89.36,1019.9,Y,  0.00, 90.00,295.84, 32.57, 32.06, 28.34, 21.66, 16.14,
    93,10/12/05 01:33:14,11,289.41, 89.40,1019.9,Y,  0.00, 90.00,295.82, 32.86, 32.62, 28.88, 21.53, 16.21,
    94,10/12/05 01:34:14,11,289.44, 89.58,1019.9,Y,  0.00, 90.00,295.80, 32.66, 32.35, 28.51, 21.68, 16.22,
    95,10/12/05 01:35:14,11,289.51, 89.64,1020.0,Y,  0.00, 90.00,295.77, 32.48, 32.24, 28.61, 21.62, 16.63,
    96,10/12/05 01:36:14,11,289.56, 89.44,1020.0,Y,  0.00, 90.00,295.75, 33.05, 32.40, 28.95, 21.89, 16.94,
    97,10/12/05 01:37:14,11,289.60, 89.92,1019.9,Y,  0.00, 90.00,295.71, 32.10, 31.86, 28.45, 21.33, 16.06,
    98,10/12/05 01:38:14,11,289.67, 89.93,1020.0,Y,  0.00, 90.00,295.72, 31.89, 31.44, 28.10, 20.68, 15.31,
    99,10/12/05 01:39:14,11,289.70, 90.07,1020.0,Y,  0.00, 90.00,295.70, 32.19, 31.92, 27.96, 20.66, 16.08,
   100,10/12/05 01:40:14,11,289.48, 88.30,1019.8,Y,  0.00, 90.00,295.68, 31.74, 32.11, 28.14, 20.58, 15.88,
   101,10/12/05 01:41:14,11,289.54, 87.28,1019.9,Y,  0.00, 90.00,295.65, 31.74, 30.85, 27.75, 20.55, 15.55,
   102,10/12/05 01:42:14,11,289.70, 87.09,1019.9,Y,  0.00, 90.00,295.64, 31.73, 31.03, 28.08, 20.53, 15.84,
   103,10/12/05 01:43:14,11,289.73, 86.60,1019.8,Y,  0.00, 90.00,295.63, 31.29, 31.38, 27.93, 20.41, 15.55,
   104,10/12/05 01:44:14,11,289.93, 86.81,1020.0,Y,  0.00, 90.00,295.61, 31.62, 31.58, 27.86, 21.16, 16.61,
   105,10/12/05 01:45:14,11,289.79, 86.66,1019.9,Y,  0.00, 90.00,295.60, 31.64, 30.97, 27.96, 20.57, 15.46,
   106,10/12/05 01:46:14,11,289.84, 86.19,1019.9,Y,  0.00, 90.00,295.59, 31.69, 31.48, 27.64, 21.02, 15.84,
   107,10/12/05 01:47:14,11,289.95, 86.12,1019.9,Y,  0.00, 90.00,295.59, 31.99, 31.36, 28.12, 21.02, 15.94,
   108,10/12/05 01:48:14,11,290.09, 86.16,1019.9,Y,  0.00, 90.00,295.58, 31.74, 32.08, 28.13, 21.10, 15.21,
   109,10/12/05 01:49:14,11,290.22, 86.56,1020.0,Y,  0.00, 90.00,295.58, 31.44, 31.98, 27.67, 21.06, 15.39,
   110,10/12/05 01:50:14,11,290.17, 86.62,1020.1,Y,  0.00, 90.00,295.56, 31.50, 30.52, 27.45, 20.14, 15.10,
   111,10/12/05 01:51:14,11,290.11, 86.07,1019.8,Y,  0.00, 90.00,295.57, 31.49, 30.93, 27.15, 19.96, 14.98,
   112,10/12/05 01:52:14,11,290.03, 85.33,1020.0,Y,  0.00, 90.00,295.57, 31.06, 31.35, 27.05, 20.01, 15.04,
   113,10/12/05 01:53:14,11,290.14, 84.95,1020.0,Y,  0.00, 90.00,295.57, 31.60, 31.60, 28.08, 21.38, 17.70,
   114,10/12/05 01:54:14,11,290.26, 84.65,1019.8,Y,  0.00, 90.00,295.56, 32.45, 31.96, 28.42, 21.56, 16.69,
   115,10/12/05 01:55:14,11,290.07, 82.03,1019.8,Y,  0.00, 90.00,295.55, 31.42, 31.67, 27.66, 20.58, 15.29,
   116,10/12/05 01:56:14,11,290.23, 81.25,1019.9,Y,  0.00, 90.00,295.57, 31.47, 30.79, 28.17, 20.72, 15.42,
   117,10/12/05 01:57:14,11,290.39, 80.92,1020.2,Y,  0.00, 90.00,295.56, 31.27, 31.13, 27.99, 20.81, 16.43,
   118,10/12/05 01:58:14,11,290.35, 80.00,1019.9,Y,  0.00, 90.00,295.56, 32.06, 31.55, 28.07, 20.97, 15.21,
   119,10/12/05 01:59:14,11,290.41, 79.87,1019.9,Y,  0.00, 90.00,295.57, 32.22, 31.98, 28.63, 21.86, 15.77,
   120,10/12/05 02:00:14,11,290.61, 80.45,1019.7,Y,  0.00, 90.00,295.58, 32.63, 32.26, 28.40, 21.94, 17.03,
   121,10/12/05 02:01:14,11,290.46, 79.39,1019.9,Y,  0.00, 90.00,295.57, 32.22, 31.86, 28.48, 21.82, 15.34,
   122,10/12/05 02:02:14,11,290.45, 78.55,1020.1,Y,  0.00, 90.00,295.59, 33.54, 33.66, 29.66, 23.37, 18.82,
   123,10/12/05 02:03:14,11,290.46, 78.52,1020.1,Y,  0.00, 90.00,295.60, 34.21, 34.12, 30.44, 23.09, 18.59,
   124,10/12/05 02:04:14,11,290.65, 79.39,1020.2,Y,  0.00, 90.00,295.61, 34.73, 34.37, 30.48, 23.72, 19.87,
   125,10/12/05 02:05:14,11,290.56, 79.38,1020.0,Y,  0.00, 90.00,295.62, 34.58, 34.50, 31.40, 24.97, 20.37,
   126,10/12/05 02:06:14,11,290.60, 79.31,1019.9,Y,  0.00, 90.00,295.62, 36.55, 36.42, 33.47, 27.33, 23.36,
   127,10/12/05 02:07:14,11,290.36, 79.22,1020.0,Y,  0.00, 90.00,295.64, 37.03, 36.97, 33.86, 27.58, 24.39,
   128,10/12/05 02:08:14,11,290.66, 81.63,1020.0,Y,  0.00, 90.00,295.64, 37.52, 37.28, 34.29, 27.43, 25.08,
   129,10/12/05 02:09:14,11,290.37, 83.89,1019.9,Y,  0.00, 90.00,295.65, 40.94, 40.43, 37.68, 32.37, 30.61,
   130,10/12/05 02:10:14,11,290.26, 85.06,1020.0,Y,  0.00, 90.00,295.67, 39.94, 39.20, 36.51, 30.04, 28.30,
   131,10/12/05 02:11:14,11,290.13, 86.53,1020.2,Y,  0.00, 90.00,295.68, 40.96, 41.05, 37.82, 32.33, 30.10,
   132,10/12/05 02:12:14,11,289.99, 87.67,1020.2,Y,  0.00, 90.00,295.68, 49.74, 50.92, 48.32, 44.24, 44.88,
   133,10/12/05 02:13:14,11,289.98, 89.22,1019.9,Y,  0.00, 90.00,295.69, 47.86, 48.15, 45.31, 41.17, 41.90,
   134,10/12/05 02:14:14,11,289.86, 90.09,1020.1,Y,  0.00, 90.00,295.69, 46.58, 47.14, 44.22, 40.14, 40.85,
   135,10/12/05 02:15:14,11,289.81, 91.04,1019.9,Y,  0.00, 90.00,295.69, 49.07, 50.09, 47.51, 43.10, 45.19,
   136,10/12/05 02:16:14,11,289.43, 91.09,1019.9,Y,  0.00, 90.00,295.70, 44.44, 44.96, 43.00, 37.60, 37.50,
   137,10/12/05 02:17:14,11,289.20, 91.46,1019.9,Y,  0.00, 90.00,295.69, 42.31, 42.84, 39.52, 34.02, 33.11,
   138,10/12/05 02:18:14,11,289.27, 91.90,1020.1,Y,  0.00, 90.00,295.68, 40.66, 40.78, 37.68, 32.06, 29.59,
   139,10/12/05 02:19:14,11,289.04, 91.68,1020.2,Y,  0.00, 90.00,295.68, 39.86, 40.26, 37.09, 31.29, 28.29,
   140,10/12/05 02:20:14,11,288.98, 91.61,1020.4,Y,  0.00, 90.00,295.67, 40.42, 40.39, 37.44, 32.16, 30.73,
   141,10/12/05 02:21:14,11,288.96, 91.96,1020.3,Y,  0.00, 90.00,295.64, 41.01, 41.68, 38.02, 32.91, 31.12,
   142,10/12/05 02:22:14,11,288.97, 91.75,1020.1,Y,  0.00, 90.00,295.63, 38.63, 39.09, 35.94, 30.03, 26.39,
   143,10/12/05 02:23:14,11,289.10, 91.60,1020.2,Y,  0.00, 90.00,295.60, 37.91, 38.19, 35.38, 29.36, 26.23,
   144,10/12/05 02:24:14,11,289.10, 91.46,1020.2,Y,  0.00, 90.00,295.59, 37.32, 38.08, 34.22, 27.26, 24.96,
   145,10/12/05 02:25:14,11,288.98, 91.13,1020.1,Y,  0.00, 90.00,295.55, 35.79, 35.96, 32.48, 25.69, 22.15,
   146,10/12/05 02:26:14,11,289.12, 91.07,1020.3,Y,  0.00, 90.00,295.54, 35.21, 35.20, 31.51, 24.94, 20.37,
   147,10/12/05 02:27:14,11,289.19, 90.10,1020.1,Y,  0.00, 90.00,295.52, 36.06, 36.42, 32.98, 26.25, 22.61,
   148,10/12/05 02:28:14,11,289.28, 89.47,1020.1,Y,  0.00, 90.00,295.50, 36.83, 36.80, 33.30, 26.63, 23.58,
   149,10/12/05 02:29:14,11,289.31, 89.07,1020.2,Y,  0.00, 90.00,295.48, 37.08, 37.24, 33.75, 27.48, 23.76,
   150,10/12/05 02:30:14,11,289.29, 88.47,1020.4,Y,  0.00, 90.00,295.46, 36.23, 36.17, 33.10, 26.68, 23.18,
   151,10/12/05 02:31:14,11,289.19, 87.56,1020.3,Y,  0.00, 90.00,295.42, 35.85, 35.29, 32.40, 25.47, 22.04,
   152,10/12/05 02:32:14,11,289.50, 87.84,1020.2,Y,  0.00, 90.00,295.40, 35.28, 35.32, 31.51, 25.14, 21.92,
   153,10/12/05 02:33:14,11,289.53, 87.68,1020.3,Y,  0.00, 90.00,295.39, 34.34, 34.47, 30.94, 23.35, 19.14,
   154,10/12/05 02:34:14,11,289.36, 86.90,1020.2,Y,  0.00, 90.00,295.37, 33.45, 33.65, 29.74, 23.22, 17.93,
   155,10/12/05 02:35:14,11,289.52, 87.10,1020.3,Y,  0.00, 90.00,295.36, 32.88, 32.69, 29.16, 21.50, 16.88,
   156,10/12/05 02:36:14,11,289.59, 87.02,1020.3,Y,  0.00, 90.00,295.34, 32.37, 32.57, 28.51, 20.94, 16.90,
   157,10/12/05 02:37:14,11,289.56, 86.52,1020.2,Y,  0.00, 90.00,295.32, 32.39, 32.24, 28.66, 21.53, 16.54,
   158,10/12/05 02:38:14,11,289.66, 86.57,1020.2,Y,  0.00, 90.00,295.31, 32.58, 31.86, 28.60, 21.27, 15.71,
   159,10/12/05 02:39:15,11,289.66, 86.12,1020.3,Y,  0.00, 90.00,295.30, 32.37, 32.59, 28.89, 21.39, 17.00,
   160,10/12/05 02:40:15,11,289.69, 86.25,1020.3,Y,  0.00, 90.00,295.29, 32.62, 32.71, 28.99, 21.43, 16.21,
   161,10/12/05 02:41:14,11,289.84, 86.53,1020.3,Y,  0.00, 90.00,295.26, 32.66, 32.36, 28.90, 21.71, 16.84,
   162,10/12/05 02:42:14,11,289.92, 86.85,1020.0,Y,  0.00, 90.00,295.25, 32.76, 31.92, 27.80, 21.05, 16.11,
   163,10/12/05 02:43:14,11,289.89, 86.25,1020.1,Y,  0.00, 90.00,295.26, 32.74, 32.85, 27.69, 21.22, 15.74,
   164,10/12/05 02:44:14,11,290.03, 86.53,1020.2,Y,  0.00, 90.00,295.25, 32.56, 32.31, 28.27, 21.15, 15.81,
   165,10/12/05 02:45:14,11,289.92, 86.47,1020.3,Y,  0.00, 90.00,295.25, 32.18, 31.83, 28.24, 20.98, 15.57,
   166,10/12/05 02:46:14,11,289.98, 85.91,1020.3,Y,  0.00, 90.00,295.23, 32.09, 31.59, 27.93, 20.56, 16.89,
   167,10/12/05 02:47:14,11,290.00, 85.50,1020.1,Y,  0.00, 90.00,295.24, 32.39, 31.85, 28.13, 21.20, 16.05,
   168,10/12/05 02:48:14,11,290.04, 85.49,1020.2,Y,  0.00, 90.00,295.24, 32.40, 32.21, 28.49, 21.13, 15.73,
   169,10/12/05 02:49:14,11,290.19, 85.66,1020.3,Y,  0.00, 90.00,295.24, 32.32, 32.28, 29.10, 21.03, 16.69,
   170,10/12/05 02:50:14,11,290.15, 85.46,1020.3,Y,  0.00, 90.00,295.23, 32.80, 32.40, 29.03, 21.88, 16.61,
   171,10/12/05 02:51:14,11,290.12, 85.27,1020.4,Y,  0.00, 90.00,295.22, 33.21, 32.92, 29.68, 22.11, 17.55,
   172,10/12/05 02:52:14,11,290.26, 85.35,1020.3,Y,  0.00, 90.00,295.23, 34.04, 33.84, 30.35, 23.77, 19.00,
   173,10/12/05 02:53:14,11,290.15, 84.70,1020.1,Y,  0.00, 90.00,295.23, 32.87, 32.37, 28.60, 21.70, 16.80,
   174,10/12/05 02:54:14,11,290.24, 84.73,1020.4,Y,  0.00, 90.00,295.24, 33.55, 33.36, 29.56, 22.48, 17.93,
   175,10/12/05 02:55:14,11,290.28, 84.73,1020.5,Y,  0.00, 90.00,295.24, 33.18, 33.05, 29.06, 22.24, 17.42,
   176,10/12/05 02:56:14,11,290.24, 84.81,1020.1,Y,  0.00, 90.00,295.24, 33.62, 33.20, 29.51, 22.57, 18.31,
   177,10/12/05 02:57:14,11,290.18, 84.46,1020.4,Y,  0.00, 90.00,295.25, 32.46, 32.10, 28.23, 21.33, 15.64,
   178,10/12/05 02:58:14,11,290.31, 84.60,1020.3,Y,  0.00, 90.00,295.27, 32.54, 32.78, 28.99, 21.98, 17.27,
   179,10/12/05 02:59:14,11,290.30, 84.37,1020.2,Y,  0.00, 90.00,295.28, 33.10, 33.19, 29.22, 22.66, 18.11,
   180,10/12/05 03:00:14,11,290.32, 84.19,1020.2,Y,  0.00, 90.00,295.29, 33.00, 33.07, 29.65, 22.26, 17.30,
   181,10/12/05 03:01:14,11,290.38, 84.31,1020.3,Y,  0.00, 90.00,295.29, 34.53, 34.33, 30.61, 24.30, 18.92,
   182,10/12/05 03:02:14,11,290.62, 85.03,1020.3,Y,  0.00, 90.00,295.30, 33.01, 32.65, 29.28, 21.85, 16.99,
   183,10/12/05 03:03:14,11,290.39, 84.23,1020.2,Y,  0.00, 90.00,295.31, 32.64, 32.49, 29.05, 21.91, 16.95,
   184,10/12/05 03:04:14,11,290.59, 84.71,1020.3,Y,  0.00, 90.00,295.32, 32.41, 32.62, 29.04, 21.56, 16.72,
   185,10/12/05 03:05:14,11,290.39, 84.11,1020.2,Y,  0.00, 90.00,295.33, 32.67, 32.26, 28.56, 20.91, 16.32,
   186,10/12/05 03:06:14,11,290.37, 83.89,1020.2,Y,  0.00, 90.00,295.33, 32.56, 31.55, 28.16, 20.91, 14.72,
   187,10/12/05 03:07:14,11,290.50, 85.11,1020.3,Y,  0.00, 90.00,295.35, 32.07, 32.28, 28.64, 20.94, 15.95,
   188,10/12/05 03:08:14,11,290.37, 86.04,1020.2,Y,  0.00, 90.00,295.36, 32.60, 32.90, 29.17, 22.18, 16.76,
   189,10/12/05 03:09:14,11,290.39, 86.66,1020.3,Y,  0.00, 90.00,295.37, 33.29, 33.21, 28.95, 21.72, 15.50,
   190,10/12/05 03:10:14,11,290.39, 87.25,1020.0,Y,  0.00, 90.00,295.37, 37.34, 36.41, 33.19, 27.26, 23.28,
   191,10/12/05 03:11:14,11,290.32, 87.75,1020.3,Y,  0.00, 90.00,295.39, 39.34, 39.86, 36.77, 31.23, 28.22,
   192,10/12/05 03:12:14,11,290.27, 87.74,1020.3,Y,  0.00, 90.00,295.40, 40.05, 40.26, 36.89, 31.42, 28.49,
   193,10/12/05 03:13:14,11,290.26, 87.55,1020.1,Y,  0.00, 90.00,295.42, 38.52, 38.27, 34.99, 28.32, 25.35,
   194,10/12/05 03:14:14,11,290.36, 87.77,1020.2,Y,  0.00, 90.00,295.41, 38.74, 39.15, 36.35, 30.32, 28.02,
   195,10/12/05 03:15:14,11,290.26, 87.39,1020.4,Y,  0.00, 90.00,295.43, 47.30, 48.10, 45.73, 41.99, 43.00,
   196,10/12/05 03:16:14,11,290.13, 86.70,1020.4,Y,  0.00, 90.00,295.44, 46.49, 47.19, 44.18, 39.97, 40.17,
   197,10/12/05 03:17:14,11,290.20, 86.70,1020.3,Y,  0.00, 90.00,295.45, 45.87, 47.04, 43.30, 40.03, 40.36,
   198,10/12/05 03:18:14,11,289.86, 86.68,1020.3,Y,  0.00, 90.00,295.47, 45.65, 45.76, 42.28, 37.94, 37.26,
   199,10/12/05 03:19:14,11,289.54, 87.22,1020.3,Y,  0.00, 90.00,295.49, 53.71, 54.22, 52.09, 49.72, 52.85,
   200,10/12/05 03:20:14,11,289.56, 88.15,1020.3,Y,  0.00, 90.00,295.48, 43.03, 43.51, 40.86, 35.20, 35.01,
   201,10/12/05 03:21:14,11,289.55, 88.31,1020.5,Y,  0.00, 90.00,295.49, 42.17, 42.09, 38.50, 34.00, 31.51,
   202,10/12/05 03:22:14,11,289.73, 88.77,1020.3,Y,  0.00, 90.00,295.49, 39.79, 40.47, 36.56, 31.04, 28.58,
   203,10/12/05 03:23:14,11,289.75, 89.00,1020.4,Y,  0.00, 90.00,295.49, 37.06, 36.84, 32.98, 26.69, 23.82,
   204,10/12/05 03:24:15,11,289.66, 87.96,1020.4,Y,  0.00, 90.00,295.48, 35.18, 35.00, 32.08, 24.54, 19.41,
   205,10/12/05 03:25:14,11,289.64, 87.70,1020.7,Y,  0.00, 90.00,295.47, 37.31, 37.21, 33.19, 27.43, 23.92,
   206,10/12/05 03:26:14,11,289.63, 87.68,1020.4,Y,  0.00, 90.00,295.47, 37.04, 37.14, 33.73, 27.03, 23.77,
   207,10/12/05 03:27:14,11,289.70, 87.34,1020.4,Y,  0.00, 90.00,295.44, 37.03, 37.40, 34.14, 27.92, 23.68,
   208,10/12/05 03:28:14,11,289.96, 87.61,1020.4,Y,  0.00, 90.00,295.45, 38.16, 37.90, 34.85, 28.27, 25.24,
   209,10/12/05 03:29:14,11,289.79, 86.26,1020.4,Y,  0.00, 90.00,295.43, 37.94, 38.21, 34.19, 27.67, 23.99,
   210,10/12/05 03:30:14,11,289.89, 86.11,1020.3,Y,  0.00, 90.00,295.43, 39.24, 39.95, 36.39, 30.71, 27.99,
   211,10/12/05 03:31:15,11,289.99, 86.40,1020.5,Y,  0.00, 90.00,295.42, 36.04, 36.23, 33.00, 25.99, 22.10,
   212,10/12/05 03:32:14,11,290.07, 86.85,1020.4,Y,  0.00, 90.00,295.40, 35.05, 35.26, 31.06, 24.02, 19.71,
   213,10/12/05 03:33:14,11,290.06, 86.92,1020.4,Y,  0.00, 90.00,295.39, 34.93, 34.57, 31.24, 23.75, 19.76,
   214,10/12/05 03:34:15,11,290.12, 86.81,1020.5,Y,  0.00, 90.00,295.38, 53.04, 55.21, 53.38, 51.96, 56.15,
   215,10/12/05 03:35:14,11,290.12, 86.77,1020.5,Y,  0.00, 90.00,295.36, 64.86, 66.80, 66.30, 68.04, 76.90,
   216,10/12/05 03:36:14,11,290.20, 87.60,1020.6,Y,  0.00, 90.00,295.37, 56.97, 57.72, 55.49, 53.25, 56.45,
   217,10/12/05 03:37:14,11,290.15, 88.31,1020.6,Y,  0.00, 90.00,295.37, 46.63, 47.78, 44.18, 39.45, 39.68,
   218,10/12/05 03:38:14,11,290.08, 88.98,1020.5,Y,  0.00, 90.00,295.36, 41.72, 42.11, 38.78, 32.17, 29.57,
   219,10/12/05 03:39:14,11,290.14, 88.92,1020.4,Y,  0.00, 90.00,295.35, 44.72, 44.95, 42.44, 37.15, 36.28,